Location: Newark
(34.1333°N, 7.9667°W)
Time: 06:57:16
(UTC+00:00)

CUBESAT XI-V - Visible Passes

Search period start: 10 June 2023 00:00
Search period end: 20 June 2023 00:00
Orbit: 662 x 687 km, 98.2° (Epoch: 10 June)

Date Brightness Start Highest point End Pass type
(mag) Time Alt. Az. Time Alt. Az. Time Alt. Az.
10 Jun ? 01:07:07 11° ENE 01:08:09 11° ENE 01:09:31 10° NE visible
10 Jun ? 02:45:26 54° WNW 02:45:26 54° WNW 02:49:18 10° NNW visible
11 Jun ? 01:41:44 26° ENE 01:42:02 26° ENE 01:45:48 10° NNE visible
11 Jun ? 03:20:02 23° WNW 03:20:02 23° WNW 03:22:50 10° NW visible
12 Jun ? 02:16:20 61° NE 02:16:20 61° NE 02:20:35 10° N visible
13 Jun ? 01:12:39 12° E 01:13:35 13° ENE 01:15:38 10° NE visible
13 Jun ? 02:50:57 47° WNW 02:50:57 47° WNW 02:54:45 10° NNW visible
14 Jun ? 01:47:15 29° ENE 01:47:29 29° ENE 01:51:26 10° N visible
14 Jun ? 03:25:34 20° WNW 03:25:34 20° WNW 03:28:07 10° NW visible
15 Jun ? 02:21:52 69° NE 02:21:52 69° NE 02:26:06 10° N visible
16 Jun ? 01:18:10 14° E 01:18:59 15° ENE 01:21:31 10° NNE visible
16 Jun ? 02:56:28 41° WNW 02:56:28 41° WNW 03:00:09 10° NNW visible
17 Jun ? 01:52:46 33° ENE 01:52:55 34° ENE 01:57:00 10° N visible
17 Jun ? 03:31:05 17° W 03:31:05 17° W 03:33:19 10° NW visible
18 Jun ? 02:27:22 74° N 02:27:22 74° N 02:31:34 10° N visible
19 Jun ? 01:23:40 16° E 01:24:23 17° ENE 01:27:16 10° NNE visible
19 Jun ? 03:01:59 36° WNW 03:01:59 36° WNW 03:05:29 10° NNW visible
